Torna al catalogo

STARLINK-37526

AttivoComunicazioniVLEO
NORAD 69463·PAYLOAD·🇺🇸 United States

Lanciato Jun 8, 2026 da Cape Canaveral Space Force Station

Loading…

Prossimi Passaggi (prossime 24 ore)

TLE

AggiornatoSource: CelesTrak SupGP

Epoca: Sep 15, 2026, 03:42 UTC

1 69463C 26127W   26258.15465278 -.00033783  00000+0 -99816-3 0  2586
2 69463  53.1572 190.8453 0001309  84.4530 124.5533 15.34406459    15

Traccia STARLINK-37526 in tempo reale con AllMySat

Download on the App Store